"Pseudo-MPEC" for ZTF01sb

Created 2018 Dec 9 15:18:19 UT using Find_Orb

Click here for an explanation of pseudo-MPECs

 
 Astrometry: 
     ZTF01sb  C2018 12 03.28067005 01 28.80 +67 12 54.4          19.60rUNEOCPI41
     ZTF01sb  C2018 12 03.28159005 01 28.67 +67 12 55.9          19.43rUNEOCPI41
     ZTF01sb  C2018 12 03.35958005 01 19.76 +67 14 50.6          19.59rUNEOCPI41
     ZTF01sb  C2018 12 03.36052005 01 19.63 +67 14 52.0          19.57rUNEOCPI41
     ZTF01sb  C2018 12 04.21264004 59 51.53 +67 35 23.2          19.43rUNEOCPI41
     ZTF01sb  C2018 12 04.27997004 59 43.59 +67 37 01.4          19.52rUNEOCPI41
     ZTF01sb 1C2018 12 06uIrvHf[#6x/PG\yl!h(8Ss$B#GN62DAstrometryP-n]ph?MX=\c658
     ZTF01sb 1C2018 12 068f)ekCl.Y$RceeIp.hC@_Z)#Slg'vZmZE8`h*H!bd(!*QK8sI22)658
     ZTF01sb 1C2018 12 06^60r\I2$-ZZJ[DR6(];tVd-BGI1]1gI$1v:4.ruiRyJQQ:YhUTDt658
     ZTF01sb 1C2018 12 06O?YRwjN7X]/.L-redacted;Pm_DL'SZLMuFI_x(h=aA:,I+,nL20658
     ZTF01sb 1C2018 12 06:dA`MjyKrhB4c6@2u^si1+TEH1b;ryD@hsQ;aMO$cIk^-d'rI[=K658
     ZTF01sb KC2018 12 06Ba4bAW\Lrwy!VJGW1[*Zq!`ktSdInSe50!a\y:]UV-V0gkH!JaZo104
     ZTF01sb KC2018 12 06S)+=+Fy^`\miIL-jq0k44-n)B/QBM!O1,l,kTlM!bp$4$n+h9?Fh104
     ZTF01sb KC2018 12 067;jw-`)S:uZo]QsK/A0wZ*y[r^X#tC\clicke8LbF2kS@3uWdn\M104
     ZTF01sb KC2018 12 069H;q5:bS5S!a`([s#88LNe;ujsKG2Nc)TRxp-++I^a1DilqF_/r3L01
     ZTF01sb KC2018 12 06@tb]Wp6UfC`LFD3WB$:Hc#uPR=9K$'FRi)0_se%pLQ=JdNG@R;CoL01
     ZTF01sb KC2018 12 06P9tvl=ZV-g[Xm3urQ#?rVZ;%R3%WHr.aF^Scr/?QU^Dh3here?j5L01
     ZTF01sb 1C2018 12 07s_YA2A]X6BR;XQppO8]F2N[#N+d.-7n@3bp^B`Zt`P-7FWA_;gKC658
     ZTF01sb 1C2018 12 07:^(5q.wgFsM[m41%12FJMguJ6$uCJ/8.7M%y$lwt[jbFEAWWB\^/658
     ZTF01sb 1C2018 12 07`G[n8.NlftlcnM-0M,R*=t@U)x=)gUMVavHIJ:5x,RG3_W`lcE/]658
     ZTF01sb 1C2018 12 07+k^2!EbJHfd7eKi28Niyt-x^D=#e5_Ct+',,forIV(5u?.287Vke658
     ZTF01sb 1C2018 12 07Mv@JJK,0WfYhoo=ho=Q\UB8G-Uj1+7C[Wn+(T:@u(ijEX:/vq+hr658
     ZTF01sb  C2018 12 08.04257 04 52 19.89 +69 01 10.2          19.0 VSNEOCP033
     ZTF01sb  C2018 12 08.04380 04 52 19.71 +69 01 11.8          19.2 VSNEOCP033
     ZTF01sb  C2018 12 08.05716 04 52 17.96 +69 01 28.0          18.7 VSNEOCP033
     ZTF01sb  C2018 12 08.05819 04 52 17.82 +69 01 29.0          19.3 VSNEOCP033
     ZTF01sb  C2018 12 08.05921 04 52 17.64 +69 01 30.7          19.4 VSNEOCP033
     ZTF01sb  C2018 12 08.06031 04 52 17.52 +69 01 31.9          18.9 VSNEOCP033
     ZTF01sb  C2018 12 08.23532 04 51 54.69 +69 05 03.2          18.6 VSNEOCP033
     ZTF01sb  C2018 12 08.23634 04 51 54.58 +69 05 04.3          18.7 VSNEOCP033
     ZTF01sb  C2018 12 08.23736 04 51 54.44 +69 05 05.5          18.7 VSNEOCP033
     ZTF01sb KC2018 12 08;]^r+iU_+oY[QIKP[elD;=O)6A-E@/`Wm2]g!B64#A7)qrHcpd'EK38
     ZTF01sb KC2018 12 08HgLY[^urP:p8V!c(IMyg.x5Y?=]_?J1x_JMWP#ruj8QE4n)3\keqK38
     ZTF01sb KC2018 12 08e0+KZX\d5.0R1wgPlp=(;\SeAexplanationA@Nk*YpdkS(Z;FDnK38
     ZTF01sb  C2018 12 08.79376 04 50 45.64 +69 16 36.9          19.3 VSNEOCP033
     ZTF01sb  C2018 12 08.79466 04 50 45.51 +69 16 38.0          19.1 VSNEOCP033
     ZTF01sb  C2018 12 08.79557 04 50 45.40 +69 16 39.1          19.0 VSNEOCP033
     ZTF01sb KC2018 12 09.08666304 50 08.01 +69 22 30.9          19.6 GVNEOCPV03
     ZTF01sb KC2018 12 09.09224704 50 07.23 +69 22 38.0          19.5 GVNEOCPV03

Station data:
(033) Karl Schwarzschild Observatory, Tautenburg  (N50.980140 E11.711240)
   Germany. 1.3-m Schmidt.
(104) San Marcello Pistoiese  (N44.063037 E10.804200)  Italy. 0.40-m f/5
   reflector.
(658) Dominion Astrophysical Observatory  (N48.519987 W123.417000)
   Canada/BritColumbia. 1.82-m Plaskett reflector.
(I41) Palomar Mountain--ZTF  (N33.357340 W116.859780)  US/California. 1.2-m
   f/2.44 Oschin Schmidt + CCD.
(K38) M57 Observatory, Saltrio  (N45.873785 E8.918240)  Italy.
(L01) Višnjan Observatory, Tičan  (N45.290900 E13.749300)  Croatia.
   Observers K. Korlević, E. Pettarin. Measurer E. Pettarin. 1.0-m f/2.9
   reflector + CCD.
(V03) Big Water  (N37.083379 W111.668600)  US/Utah.  Observer D. Rankin.
   0.30-m reflector + CCD.

Orbital elements:  ZTF01sb
   Perihelion 2019 Feb 9.068864 +/- 0.198 TT =  1:39:09 (JD 2458523.568864)
Epoch 2018 Dec  9.0 TT = JDT 2458461.5   Earth MOID: 0.5805   AutoNEOCP
M 343.58243282 +/- 0.13             (J2000 ecliptic)
n   0.26450568 +/- 0.00145          Peri.  103.56497 +/- 0.34
a   2.40351061 +/- 0.00876          Node    17.02607 +/- 0.15
e   0.4097788 +/- 0.00106           Incl.   21.03944 +/- 0.07
P   3.73                   H 18.2   G  0.15   U  8.4  
q 1.41860289 +/- 0.00281    Q 3.38841833 +/- 0.015
From 39 observations 2018 Dec. 3-9; mean residual 0".19
Residuals in arcseconds: 
181203 I41  .18+  .08-    181206 104  .39+  .35+    181208 033  .13-  .09+    
181203 I41  .03+  .05+    181206 L01  .16+  .26-    181208 033  .02+  .06-    
181203 I41  .01+  .06-    181206 L01  .06+  .02-    181208 033  .09+  .07-    
181203 I41  .12-  .03-    181206 L01  .20-  .37-    181208 033  .18+  .19-    
181204 I41  .11-  .13+    181207 658  .22+  .25+    181208 033  .12+  .22-    
181204 I41  .12-  .05+    181207 658  .15+  .07+    181208 K38  .20-  .27+    
181206 658  .15+  .02+    181207 658  .00   .15+    181208 K38  .90-  .34+    
181206 658  .03+  .07-    181207 658  .04+  .02-    181208 K38  .35+  .12+    
181206 658  .02+  .03-    181207 658  .22-  .07+    181208 033  .14+  .10-    
181206 658  .02+  .01-    181208 033  .09-  .03+    181208 033  .09+  .13-    
181206 658  .05-  .07-    181208 033  .17-  .11+    181208 033  .16+  .18-    
181206 104  .08-  .05-    181208 033  .10+  .10-    181209 V03  .20+  .14-    
181206 104  .26-  .20+    181208 033  .10+  .36-    181209 V03  .05+  .10-    

Ephemerides (geocentric):
Date (UTC) HH   RA              Dec         delta   r     elong  mag " sig PA
---- -- -- --  -------------   -----------  ------ ------ -----  --- ---- ---
2018 12 09 15  04 48 54.853   +69 33 12.48  .67098 1.5249 133.2 19.5 .196  68
2018 12 09 16  04 48 49.293   +69 34 01.50  .67091 1.5247 133.2 19.5 .203  68
2018 12 09 17  04 48 43.727   +69 34 50.43  .67083 1.5246 133.2 19.5 .209  68
2018 12 09 18  04 48 38.155   +69 35 39.28  .67076 1.5245 133.2 19.5 .216  68
2018 12 09 19  04 48 32.575   +69 36 28.04  .67068 1.5243 133.2 19.5 .223  68
2018 12 09 20  04 48 26.989   +69 37 16.71  .67061 1.5242 133.2 19.5 .230  68
2018 12 09 21  04 48 21.396   +69 38 05.29  .67054 1.5241 133.1 19.5 .237  68
2018 12 09 22  04 48 15.797   +69 38 53.79  .67046 1.5239 133.1 19.5 .244  68
2018 12 09 23  04 48 10.190   +69 39 42.20  .67039 1.5238 133.1 19.5 .251  67
2018 12 10 00  04 48 04.578   +69 40 30.52  .67032 1.5237 133.1 19.5 .259  67
2018 12 10 01  04 47 58.958   +69 41 18.75  .67024 1.5235 133.1 19.5 .266  67
2018 12 10 02  04 47 53.332   +69 42 06.90  .67017 1.5234 133.1 19.5 .273  67
2018 12 10 03  04 47 47.700   +69 42 54.96  .67010 1.5233 133.1 19.5 .281  67
2018 12 10 04  04 47 42.061   +69 43 42.93  .67003 1.5231 133.1 19.5 .288  67
2018 12 10 05  04 47 36.415   +69 44 30.81  .66996 1.5230 133.0 19.5 .296  67
2018 12 10 06  04 47 30.764   +69 45 18.61  .66988 1.5229 133.0 19.5 .304  67
2018 12 10 07  04 47 25.105   +69 46 06.31  .66981 1.5227 133.0 19.5 .311  66
2018 12 10 08  04 47 19.441   +69 46 53.93  .66974 1.5226 133.0 19.5 .319  66
2018 12 10 09  04 47 13.770   +69 47 41.46  .66967 1.5225 133.0 19.5 .327  66
2018 12 10 10  04 47 08.093   +69 48 28.90  .66960 1.5223 133.0 19.5 .335  66
2018 12 10 11  04 47 02.409   +69 49 16.26  .66953 1.5222 133.0 19.5 .343  66
2018 12 10 12  04 46 56.720   +69 50 03.52  .66946 1.5221 133.0 19.5 .351  66
2018 12 10 13  04 46 51.024   +69 50 50.70  .66939 1.5219 133.0 19.5 .360  66
2018 12 10 14  04 46 45.321   +69 51 37.79  .66932 1.5218 132.9 19.5 .368  66
2018 12 10 15  04 46 39.613   +69 52 24.79  .66925 1.5217 132.9 19.5 .376  65
2018 12 10 16  04 46 33.899   +69 53 11.70  .66918 1.5215 132.9 19.5 .385  65
2018 12 10 17  04 46 28.178   +69 53 58.52  .66911 1.5214 132.9 19.5 .393  65
2018 12 10 18  04 46 22.452   +69 54 45.26  .66904 1.5213 132.9 19.5 .402  65
2018 12 10 19  04 46 16.719   +69 55 31.90  .66897 1.5211 132.9 19.5 .411  65
2018 12 10 20  04 46 10.980   +69 56 18.46  .66891 1.5210 132.9 19.5 .419  65
2018 12 10 21  04 46 05.236   +69 57 04.92  .66884 1.5209 132.9 19.5 .428  65
2018 12 10 22  04 45 59.485   +69 57 51.30  .66877 1.5207 132.8 19.5 .437  65
2018 12 10 23  04 45 53.729   +69 58 37.59  .66870 1.5206 132.8 19.5 .446  65
2018 12 11 00  04 45 47.967   +69 59 23.79  .66863 1.5205 132.8 19.5 .455  64
2018 12 11 01  04 45 42.199   +70 00 09.90  .66857 1.5203 132.8 19.5 .464  64
2018 12 11 02  04 45 36.425   +70 00 55.92  .66850 1.5202 132.8 19.5 .473  64
2018 12 11 03  04 45 30.645   +70 01 41.85  .66843 1.5201 132.8 19.5 .483  64
2018 12 11 04  04 45 24.860   +70 02 27.70  .66837 1.5199 132.8 19.5 .492  64
2018 12 11 05  04 45 19.068   +70 03 13.45  .66830 1.5198 132.8 19.5 .501  64
2018 12 11 06  04 45 13.272   +70 03 59.11  .66823 1.5197 132.7 19.5 .511  64
2018 12 11 07  04 45 07.469   +70 04 44.69  .66817 1.5195 132.7 19.5 .521  64
2018 12 11 08  04 45 01.661   +70 05 30.17  .66810 1.5194 132.7 19.5 .530  63
2018 12 11 09  04 44 55.847   +70 06 15.57  .66803 1.5193 132.7 19.5 .540  63
2018 12 11 10  04 44 50.028   +70 07 00.87  .66797 1.5191 132.7 19.5 .550  63
2018 12 11 11  04 44 44.203   +70 07 46.09  .66790 1.5190 132.7 19.5 .560  63
2018 12 11 12  04 44 38.373   +70 08 31.21  .66784 1.5189 132.7 19.5 .569  63
2018 12 11 13  04 44 32.538   +70 09 16.25  .66777 1.5187 132.7 19.5 .580  63
2018 12 11 14  04 44 26.697   +70 10 01.20  .66771 1.5186 132.6 19.5 .590  63